CAPE
802 902 915 884 868 908 883 895 865 875 974 1054 1228 1347 1453 1447 1342 1251 1024 873 1048 1083 1116 1057 1006 1005 862 716 613 724 1021 1069 994 835 798 859 1432 1945 2469 2381 2729 2940 2899 2942 2891 3059 3034 3042 3011 3008 2942 3024 3098 2884 2902 3024 3328 3233 3278 3130 2457 2323 1842 896 821 969 1339 1026 1286 983 1172 1245 1637 1408 1325 1142 1229 1282 1339 1432 1262 1107 1216 1358 1571
732 840 890 926 893 907 897 932 958 925 976 1054 1142 1176 1340 1295 1288 1252 1080 935 902 960 1109 1148 1178 996 961 723 464 453 780 910 815 1027 826 974 1846 2138 2387 2357 2620 2820 2874 2900 3038 3111 3226 2996 3046 3167 3268 3183 3218 3175 3337 3247 3408 3219 2959 3049 2817 2378 1809 912 544 744 733 175 240 377 557 817 1260 1106 823 740 846 908 1054 1272 1439 1190 928 1140 1463
870 905 890 938 958 947 944 990 967 955 1033 984 1014 1080 1242 1283 1352 1330 1174 961 907 940 1204 1254 1251 1139 802 759 563 324 405 417 346 657 1070 980 1651 2120 2288 2616 2695 2670 2925 2844 3097 3023 3138 3060 3061 3362 3270 3307 3328 3294 3263 3342 3348 3285 3228 2746 2827 2595 2254 1232 805 506 155 691 1056 493 353 167 833 579 435 532 522 686 798 831 1034 1048 1158 1305 1667
915 952 925 957 983 999 1006 1022 996 960 1034 1004 982 1040 1179 1310 1400 1409 1257 1001 987 1008 1124 1178 1238 1294 1032 925 593 370 351 493 739 980 1037 1120 1454 2068 2439 2620 2614 2540 2716 2753 2841 2921 3124 3029 2871 3116 3502 3366 3272 3169 3181 2898 3118 3343 3023 2728 2466 2229 1900 1633 528 360 472 743 274 427 492 119 58 373 486 585 405 561 609 693 933 1137 1269 1737 1821
996 979 942 909 988 1040 1062 1072 1014 991 1008 1031 1007 1004 1009 1188 1421 1456 1338 1090 1048 1095 1078 1154 1230 1216 1023 972 762 651 768 628 683 728 875 1294 1364 2124 2348 2524 2589 2484 2719 2800 2660 2894 3070 3021 3062 3048 3173 3319 3138 3083 3146 2660 2855 2851 3131 2967 2679 2276 1694 1503 1488 197 486 1587 490 527 360 386 34 72 9 461 268 271 376 432 750 1251 919 1739 1951
992 978 972 966 1030 1080 1110 1108 1051 1016 1049 1076 1010 978 986 1166 1348 1401 1366 1178 1023 1079 1091 1197 1159 1066 1089 874 863 845 782 964 858 783 849 1110 838 1384 2317 2305 2346 2468 2749 2901 2770 2833 3080 3096 3173 3046 3087 3170 3140 2940 2990 2997 3059 2969 3015 2843 2757 2642 2318 1390 1223 1319 374 1048 1399 718 812 149 94 324 112 271 844 388 464 429 715 883 1008 1543 2242
949 921 966 983 1021 1068 1108 1135 1101 1050 1073 1056 1027 1001 1032 1148 1291 1396 1360 1244 1066 1088 1162 1175 1124 1200 1169 877 839 873 948 1095 1125 811 943 1389 1318 2108 2452 2397 2537 2433 2502 2835 2981 3046 3120 3190 3212 3098 2864 3022 3245 3170 3132 2778 2482 2778 3187 2974 2843 2996 2505 1863 1379 1054 1317 935 311 126 652 686 116 260 359 335 362 1112 418 246 276 573 706 959 1111
988 958 964 996 1050 1057 1116 1158 1122 1040 1066 1032 1034 1003 1110 1286 1374 1329 1313 1246 1119 1144 1179 1226 1179 1288 1221 1062 1038 1093 724 1221 1658 1596 1679 2010 1943 1924 2227 2462 2642 2534 2538 2833 3055 3131 3190 3281 3204 3036 3023 2794 3033 3035 2853 2559 2518 2984 3149 3338 3385 3102 2743 2174 1646 1212 1250 1043 474 459 407 704 570 154 105 150 342 333 609 596 155 248 547 550 627
959 960 945 965 1015 1015 1088 1161 1107 1056 1049 1080 1068 1070 1135 1306 1357 1357 1327 1293 1185 1130 1197 1250 1265 1346 1338 1252 1323 1250 1072 1255 1612 1600 1776 1861 1810 2084 2439 2462 2916 2821 2829 2865 2932 2987 3100 3242 3285 3164 3004 2975 2907 2766 2626 2596 2717 3024 3407 3461 3283 3270 2926 2504 2304 2031 1407 932 925 803 539 602 498 265 662 546 470 438 386 221 360 573 440 440 622
875 913 943 983 986 1019 1016 1063 1111 1089 1077 1143 1112 1058 1121 1228 1308 1341 1288 1287 1209 1174 1236 1314 1266 1425 1406 1370 1351 1440 1358 1500 1482 1741 1915 2151 1924 2153 2330 2645 2578 2899 2912 2931 3009 2972 3076 3161 3198 3081 3000 2740 2717 2564 2730 2878 3034 3171 3241 3088 3168 3231 3195 2863 2490 2322 1891 1456 1266 1471 1238 991 693 693 353 345 415 512 360 317 193 173 356 630 853
751 800 858 928 946 976 966 994 1070 1082 1086 1110 1111 1113 1110 1163 1271 1318 1328 1285 1257 1189 1248 1356 1302 1353 1442 1458 1459 1509 1556 1611 1693 1893 1985 2121 1960 2022 2222 2453 2516 2683 2670 2941 3015 2864 2973 3110 2914 2938 2906 2872 2931 2988 3037 2692 2781 2979 2914 3162 3320 3218 3074 3045 2771 2700 2386 2362 1930 1771 1494 819 835 575 525 477 195 378 613 371 227 224 240 268 872
685 681 710 783 873 902 921 953 966 1017 1047 1081 1098 1104 1123 1151 1210 1325 1380 1335 1334 1196 1204 1257 1286 1398 1392 1482 1450 1514 1623 1522 1638 1740 1938 1944 1970 2190 2318 2447 2582 2608 2858 2760 2831 2610 2902 3068 2946 2980 3083 3066 3049 3165 2886 2843 2632 2765 3094 3283 3294 3337 3297 3143 2920 2664 2509 2514 2144 1468 1558 1218 930 725 315 459 514 367 354 377 429 772 660 502 558
673 657 649 646 751 812 850 942 1020 1047 1054 1112 1049 1048 1109 1201 1275 1366 1436 1384 1379 1223 1237 1296 1367 1417 1501 1490 1561 1642 1755 1724 1768 1749 1975 1941 2082 2210 2547 2437 2645 2733 2724 2567 2750 2765 2938 3124 3109 3140 3219 3104 3078 3214 3320 3310 3147 2941 3205 3213 3237 3285 3234 3204 3100 2857 2558 2286 1957 1640 1491 1334 1277 1268 847 439 412 712 778 543 380 447 436 396 836
704 658 624 614 716 792 836 889 975 1063 1016 1016 1020 1084 1162 1201 1335 1334 1435 1429 1480 1381 1306 1404 1478 1561 1605 1614 1632 1790 1803 1776 1780 1676 1822 1947 2241 2238 2060 2017 2564 2458 2472 2686 2604 2752 2803 3060 3209 3211 3339 3359 3326 3452 3444 3539 3489 3280 3329 3340 3149 3425 3369 3322 3264 3056 2925 2801 2560 2174 1796 1533 1510 1345 1160 852 940 753 625 434 581 1033 552 349 927
776 735 676 649 638 699 744 833 1011 1031 951 983 986 1110 1219 1289 1401 1393 1521 1528 1535 1524 1405 1427 1491 1548 1704 1702 1774 1806 1715 1770 1798 1668 1851 2005 1830 1953 2251 2070 2228 2344 2590 2925 2931 2934 3074 3100 3220 3123 3269 3380 3351 3308 3292 3512 3491 3283 3062 3151 3206 3302 3481 3337 3360 3125 2876 2860 2908 2833 2423 2008 1830 1803 1466 1288 1166 899 605 442 721 707 468 555 776
814 772 712 703 736 712 692 875 985 1006 1033 961 1020 1155 1391 1371 1573 1568 1609 1600 1538 1598 1562 1522 1549 1573 1715 1750 1776 1852 1846 1830 1960 2065 2194 2035 2067 2029 2323 2393 2260 2504 2778 2909 2893 2907 3081 3115 3199 3013 3232 3241 3348 3375 3396 3315 3338 2908 2808 2803 2835 2919 3173 3152 3277 3294 3102 3085 2922 2886 2812 2401 2277 2211 1815 1538 1394 1149 814 824 903 785 649 548 584
838 781 746 797 737 764 668 721 791 938 996 996 1182 1405 1348 1449 1501 1558 1583 1614 1564 1736 1684 1600 1718 1699 1764 1759 1762 1832 1911 1858 1856 1917 1619 1874 2080 2086 2108 2089 2222 2578 2578 2565 2717 2867 2982 3046 3028 2869 3163 3251 3309 3456 3448 3543 3515 3082 2718 2885 2826 2897 3147 3195 3175 3287 3367 2830 2848 2932 2974 2831 2784 2566 2178 1785 1636 1474 1193 1087 974 746 914 781 763
826 883 873 864 825 762 627 631 720 847 993 1103 1416 1410 1505 1575 1394 1548 1668 1672 1608 1699 1644 1706 1784 1751 1817 1794 1810 1845 1722 1654 1694 1825 1785 1971 2111 2065 1951 2092 2075 2106 2194 2200 2499 2787 2922 2924 3000 3074 3114 3174 3174 3239 3489 3557 3542 3220 3048 3051 2920 3115 3173 3258 3292 3388 3412 3353 3101 2969 2998 2965 2981 2794 2424 2263 2120 2008 1759 1368 1072 985 1064 925 924
826 907 947 923 777 797 728 630 621 732 973 1085 1280 1224 1345 1369 1330 1366 1478 1503 1549 1469 1622 1835 1857 1744 1737 1816 1864 1896 1772 1779 1802 1987 2054 2057 1842 1905 1849 1887 1893 2038 2354 2449 2526 2436 2668 2853 2973 2995 3098 3168 3303 3230 3548 3592 3476 3184 3117 2883 2896 2970 2958 2982 3316 3356 3598 3571 3634 3456 3408 3323 3226 3001 2701 2370 2320 2247 2188 1906 1486 1309 1232 1007 1062
806 880 892 854 815 781 720 650 597 680 895 1036 1140 1081 1182 1255 1416 1367 1401 1555 1576 1498 1677 1857 1829 1775 1764 1908 1972 2007 2027 2003 2006 2160 2048 1975 1912 1902 1882 1749 1934 1902 1954 2297 2270 2284 2463 2476 2600 2612 2589 2761 3040 3073 3267 3516 3514 3168 3081 2976 3054 3045 2864 2963 3306 3637 3405 3506 3667 3623 3679 3609 3430 3173 2944 2594 2324 2361 2320 2248 2040 1581 1492 1290 1248
725 744 847 917 845 756 742 710 651 653 811 940 948 1034 1074 1152 1288 1334 1429 1458 1496 1489 1590 1975 1850 1872 2065 2121 2022 2074 2021 1991 2050 2097 2030 1978 2005 1990 1874 1832 1990 1886 1846 1974 2216 2282 2461 2498 2370 2536 2439 2662 2990 2987 3119 3373 3446 3297 3141 3109 3160 2997 2914 3136 3240 3358 3487 3512 3639 3615 3662 3732 3618 3399 3161 2936 2650 2426 2330 2370 2295 2155 1935 1586 1406
658 643 736 867 896 814 758 728 691 653 784 788 825 946 1021 1129 1219 1317 1408 1492 1472 1485 1680 1831 1793 1888 2014 2081 1988 1978 2032 1991 1974 1975 2017 1996 2024 2064 2010 1991 2036 2007 1894 1820 2068 2152 2372 2448 2320 2547 2681 2733 3028 3201 3042 3097 3314 3343 3308 3036 3078 3084 2970 2962 3136 3208 3547 3611 3640 3772 3709 3643 3687 3468 3246 3122 2984 2695 2395 2194 2305 2339 2232 2119 1837
494 600 682 827 956 924 825 826 800 765 842 823 870 956 1016 1107 1185 1283 1334 1439 1419 1476 1570 1865 1943 2076 2123 2050 1973 2050 2061 2037 1939 1946 1915 1847 1952 2018 2018 2024 1844 1828 1967 1840 1985 1979 2318 2540 2407 2525 2849 2768 2984 2995 2908 2985 3134 3339 3344 3191 3153 3229 3311 3347 3442 3559 3793 3814 3687 3688 3603 3636 3583 3419 3340 3244 3086 2971 2760 2559 2452 2278 2176 2130 2049
446 490 552 733 928 1060 1034 1002 975 966 978 870 923 1009 1025 1093 1170 1208 1278 1356 1376 1436 1538 1888 1941 1929 1958 2048 2092 2080 1927 1938 1875 1888 1896 1820 1792 1888 2015 1931 1837 1796 1924 1974 1974 2028 2343 2600 2511 2604 2771 2783 2898 2867 2819 2925 3128 3225 3268 3406 3515 3502 3466 3485 3546 3607 3701 3754 3657 3699 3556 3460 3537 3515 3524 3520 3391 3148 2999 2905 2803 2763 2637 2461 2319
546 558 629 795 924 1146 1356 1277 1369 1237 947 981 984 1028 1048 1178 1206 1224 1256 1322 1413 1484 1577 1774 1751 1753 1804 1963 1977 1939 1934 1904 1842 1822 1868 1824 1785 1779 1871 1806 1792 1771 1859 2003 2096 2131 2322 2504 2326 2433 2615 2725 2785 2863 2850 2694 2828 2982 3195 3147 3365 3540 3546 3544 3572 3641 3597 3708 3675 3530 3452 3567 3636 3552 3536 3532 3505 3536 3310 3012 2906 2854 2732 2642 2425
705 700 753 781 1105 1387 1646 1676 1626 1144 978 1148 1209 1106 1077 1175 1252 1253 1332 1383 1427 1485 1558 1696 1670 1660 1796 1868 1983 1899 1850 1869 1835 1837 1846 1856 1816 1791 1828 1821 1800 1823 1877 1905 2175 2137 2182 2405 2361 2370 2546 2712 2766 2855 2914 2774 2585 2749 2982 3036 3154 3418 3378 3506 3570 3536 3646 3689 3540 3594 3544 3512 3568 3561 3429 3425 3586 3603 3579 3382 3222 3084 2985 2892 2798
652 818 742 1118 1379 1702 1838 1908 1377 1084 1025 1152 1153 1123 1092 1330 1376 1325 1384 1399 1482 1532 1682 1633 1648 1645 1848 1924 1932 1923 1954 1864 1929 1867 1906 1896 1852 1811 1801 1848 1822 1856 1876 1903 1988 2217 2265 2310 2462 2463 2439 2596 2760 2759 2906 2920 2784 2785 2928 3056 2893 3130 3207 3282 3398 3356 3331 3428 3492 3468 3515 3562 3527 3524 3464 3433 3545 3650 3554 3444 3404 3415 3273 3090 2945
556 751 919 1179 1555 1851 1972 1811 1364 1141 1111 1108 1094 1115 1146 1370 1402 1368 1405 1486 1560 1637 1747 1781 1781 1781 1960 1952 1954 2044 2075 2036 2012 2067 2074 1960 1917 1882 1920 1909 1957 1918 1885 1918 1926 2088 2323 2257 2344 2452 2484 2545 2746 2747 2882 2973 2906 2830 2922 2994 3005 2919 2989 3088 3243 3306 3181 3129 3297 3381 3236 3359 3540 3567 3510 3512 3485 3434 3570 3540 3429 3417 3316 3147 2866
113 701 1232 1236 1273 1680 1936 1673 1508 1251 1214 1176 1142 1179 1242 1491 1409 1394 1425 1543 1701 1730 1834 1818 1890 1945 2126 2133 2107 2126 2203 2216 2129 2218 2221 2125 2053 2050 2030 2049 2112 2060 1969 1999 1968 1994 2117 2208 2180 2352 2437 2471 2462 2543 2598 2763 2832 2924 2911 2798 2953 2975 2961 3024 3155 3145 3215 3260 3211 3208 3207 3182 3274 3328 2972 2908 2948 3011 3327 3467 3611 3327 3170 3057 2814
1 212 632 1341 1385 1529 2005 2088 1912 1422 1402 1263 1310 1392 1394 1434 1374 1373 1475 1567 1753 1863 1956 1843 1855 2032 2246 2252 2309 2302 2394 2409 2315 2395 2444 2276 2154 2183 2135 2170 2238 2165 2160 2096 2090 2083 2041 2121 2178 2326 2444 2444 2432 2446 2444 2145 2304 2680 2902 2759 2788 2970 3046 2970 3124 3266 3179 3259 3297 3191 3044 2950 2717 2649 2535 2409 2287 2215 2168 2456 3061 3435 3066 2896 2892
0 136 564 979 1204 1524 1912 1965 1852 1658 1624 1401 1430 1438 1379 1292 1352 1402 1485 1485 1726 1994 1889 1827 1977 2066 2210 2339 2568 2517 2482 2424 2399 2415 2421 2403 2304 2239 2214 2282 2215 2220 2170 2274 2247 2164 2099 2059 2085 2167 2278 2284 2320 2326 2084 1904 1795 1813 2355 2868 2940 3011 3169 3177 3097 3293 3360 3209 3252 3230 3247 3106 2595 2247 2143 2120 2133 2060 2044 2057 2035 2032 2357 2977 2984
0 0 102 845 1072 1649 1861 1850 1684 1669 1663 1468 1670 1406 1315 1242 1345 1380 1424 1463 1692 1840 1802 1908 1907 2138 2338 2492 2351 2345 2336 2410 2427 2391 2411 2401 2329 2280 2304 2324 2240 2213 2299 2239 2238 2193 2245 2112 2103 2152 2146 2190 2281 2005 1825 1694 1604 1576 1621 2355 2693 2860 2866 2999 3112 3045 3138 3188 3145 3112 3108 3136 3158 3251 3141 3065 2342 2026 1987 1992 2000 2032 2057 2082 2104
29 0 56 424 714 1255 1722 1603 1573 1533 1459 1477 1698 1433 1482 1415 1446 1378 1463 1483 1500 1620 1692 1983 1989 2240 2526 2404 2351 2420 2384 2367 2387 2376 2396 2405 2365 2337 2314 2230 2124 2186 2200 2355 2307 2200 2276 2260 2146 2299 2201 2171 2241 1961 1739 1566 1498 1457 1510 1686 2326 2653 2790 2949 2986 3071 3079 3130 3210 3156 3116 3070 3265 2783 2677 2915 3222 3301 2603 2240 2085 2069 2088 2141 2186
172 0 0 129 979 1239 1596 1645 1706 1679 1550 1530 1492 1406 1480 1415 1492 1546 1510 1581 1630 1619 1845 2050 2027 2218 2402 2457 2484 2372 2336 2381 2410 2400 2416 2397 2327 2324 2239 2148 2091 2180 2308 2352 2284 2364 2407 2467 2340 2322 2381 2275 2235 2056 1870 1670 1513 1459 1472 1502 2232 2560 2786 2890 2911 2938 3049 3084 3203 3280 3226 3253 3356 3459 3453 3288 3321 3430 3599 3398 2837 2532 2330 2262 2255
570 8 0 657 1422 1535 1706 1816 1722 1611 1617 1592 1506 1512 1605 1524 1620 1602 1621 1901 1832 1783 2061 2166 2328 2404 2454 2402 2428 2390 2429 2502 2505 2440 2418 2391 2351 2349 2262 2149 2084 2172 2404 2440 2342 2362 2399 2481 2432 2352 2384 2321 2158 1965 1870 1712 1609 1550 1545 1575 1985 2568 2750 2864 2944 3029 3136 3094 3142 3276 3344 3230 3315 3538 3629 3555 3536 3558 3695 3658 3517 3273 3107 2919 2924
1120 356 406 1132 994 1512 1604 1744 1622 1620 1616 1625 1628 1563 1566 1568 1595 1573 1642 2008 2192 2193 2313 2227 2305 2224 2332 2351 2353 2433 2475 2558 2546 2492 2469 2435 2436 2515 2490 2326 2194 2163 2272 2342 2391 2304 2395 2521 2478 2441 2342 2339 2275 1801 1666 1550 1512 1519 1533 1580 1734 2475 2702 2798 3015 3118 3185 3252 3250 3235 3348 3394 3413 3426 3356 3010 2867 3222 3304 3458 3568 3412 3389 3351 3104
1125 738 1144 1669 1407 1637 1362 1848 1620 1578 1693 1634 1587 1554 1521 1576 1531 1627 1884 1936 1971 2218 2088 2302 2369 2244 2219 2261 2241 2333 2464 2486 2530 2539 2516 2463 2555 2644 2597 2513 2393 2264 2260 2340 2437 2402 2495 2527 2575 2545 2504 2455 2489 2127 1733 1573 1474 1401 1355 1381 1813 2290 2592 2782 2864 3010 3156 3171 3209 3242 3320 3254 3231 3474 3323 2991 2708 2483 2897 3125 3343 3424 3492 3570 3092
1250 1234 1598 1742 1583 1604 1925 1492 1699 1582 1587 1632 1678 1695 1760 1838 1724 1900 2052 1943 2105 2226 2251 2479 2236 2191 2262 2296 2387 2438 2516 2519 2573 2581 2580 2535 2557 2606 2614 2602 2528 2386 2312 2422 2500 2538 2554 2583 2536 2612 2549 2604 2519 2399 1949 1705 1583 1516 1472 1507 1938 2183 2411 2611 2827 2937 2999 3089 3134 2683 2923 3176 3251 3312 3054 2859 2618 2436 2590 3091 3259 3339 3408 3276 3026
1918 1431 1342 1435 1870 1741 1658 1742 1735 1615 1673 1862 1834 1826 2054 2139 2111 2142 2079 2147 2299 2238 2383 2428 2319 2324 2494 2599 2606 2639 2666 2666 2743 2671 2548 2553 2554 2637 2590 2605 2576 2506 2506 2614 2566 2616 2686 2698 2605 2569 2326 2338 2576 2430 2089 2021 1937 1840 1734 1717 2038 2128 2253 2415 2461 2655 2813 2842 2975 2727 2234 2353 2685 2989 2809 2660 2508 2357 2691 3063 3227 3397 3190 3176 3084
2246 2105 1918 2103 2391 2194 1737 1752 1666 1870 1950 2068 1902 2172 2288 2310 2424 2229 2230 2454 2354 2419 2521 2532 2442 2518 2727 2833 2709 2823 2817 2799 2915 2823 2718 2732 2737 2630 2692 2711 2677 2594 2674 2709 2738 2739 2786 2830 2785 2487 2493 2464 2419 2564 2418 2357 2270 2193 2102 2007 2123 2271 2279 2358 2461 2408 2606 2786 2829 2983 2713 2151 1910 1730 1870 2071 2235 2362 2505 2961 3208 3137 3056 3158 3262
1996 2330 2819 2262 2288 2012 1788 1634 1951 2278 1804 1988 2277 2153 2540 2865 2775 2549 2485 2416 2521 2721 2896 2896 2850 2757 2826 2856 2712 2938 2983 2974 3024 3028 2826 2756 2810 2835 2804 2869 2753 2582 2640 2898 2904 2758 2649 2715 2762 2806 2835 2851 2816 2794 3278 2738 2652 2551 2455 2346 2239 2356 2386 2470 2583 2534 2534 2623 2821 2978 2978 2631 2200 2096 2221 2365 2486 2586 2683 2788 2880 3216 3280 3123 3472
1912 2116 2398 2851 2546 2703 1981 1810 2690 2153 2064 2327 2526 2635 3085 3180 2748 2612 2654 2476 2808 3157 3226 3345 3430 3060 2892 3000 3057 3118 3040 3101 3130 3150 3175 3113 3091 3021 2752 2737 2750 2780 2828 2914 3170 2909 2916 2957 2989 3027 3040 3066 3070 3037 3049 3051 3014 2931 2840 2724 2586 2448 2283 2532 2688 2793 2746 2761 2849 2969 3351 3104 2477 2416 2491 2573 2674 2791 2893 2968 3062 3087 3165 3324 3530
1704 1949 2077 2393 3068 3168 2884 2418 2018 1919 2074 2193 2203 2968 3091 3159 3008 3136 2927 2986 3344 3236 3401 3413 3374 3146 3249 3283 3327 3316 3349 3358 3347 3320 3390 3348 3378 3306 3301 3368 3270 3190 3253 3367 3495 3398 3067 3077 3262 3279 3132 3135 3152 3176 3174 3188 3203 3170 3115 3014 2876 2718 2537 2391 2470 2847 2949 2902 3049 3239 3286 2936 2589 2625 2699 2793 2865 2943 3031 3117 3200 3325 3457 3558 3680
1994 1839 1886 2193 2606 2946 3138 3254 2375 2048 2216 2297 2538 3452 3458 3368 3424 3669 3179 3412 3530 3696 3749 3606 3644 3603 3703 3581 3603 3612 3600 3509 3628 3566 3536 3572 3615 3582 3569 3617 3635 3544 3588 3568 3605 3563 3452 3365 3212 3228 3250 3265 3371 3303 3350 3283 3280 3264 3228 3148 3042 2922 2761 2648 2610 2613 2684 2952 3135 3365 3676 2806 2831 2869 2922 2942 2998 3061 3120 3259 3436 3602 3672 3691 3703
2487 2509 2339 2174 2471 2711 2943 3034 3162 3502 3316 3144 3349 3649 3658 3696 4589 4613 4507 4089 3975 4043 4055 3941 3822 3828 3932 3732 3819 3842 3840 3857 3784 3764 3835 3870 3916 3886 3889 3930 3836 3694 3631 3622 3654 3598 3446 3312 3350 3592 3690 3591 3605 3430 3438 3407 3362 3315 3263 3208 3110 3020 2898 2809 2802 2824 2852 3554 3507 3115 3132 3075 3018 3034 3069 3091 3093 3124 3241 3376 3526 3626 3795 3903 3810
2794 2832 2877 2728 2465 2432 2583 2916 3086 3485 3759 4112 3980 3964 4158 4516 4331 4702 4877 4893 4844 4610 4405 4154 4099 4146 4178 4202 4300 4150 4208 4081 4100 4060 4127 4171 4081 4058 3951 4035 3791 3688 3744 3768 3884 3740 3464 3408 3424 3813 3774 3871 3838 3876 3586 3492 3441 3371 3296 3232 3161 3081 3009 2992 3009 3083 3214 3216 3275 3294 3247 3207 3202 3178 3155 3184 3240 3278 3322 3436 3622 3837 3890 3752 3627
2830 2819 2970 3145 3060 2835 2608 2535 2588 2925 3311 3778 4308 4409 4302 4192 4430 4717 5037 5174 5261 5138 5002 4934 4790 4685 4586 4420 4357 4288 4385 4424 4482 4344 4327 4346 4271 4335 4222 4236 4104 3892 3833 3825 3710 3581 3472 3610 3515 3872 4046 3986 4022 4004 3730 3545 3502 3412 3348 3310 3255 3184 3143 3231 3309 3388 3401 3449 3471 3428 3390 3355 3354 3336 3340 3331 3332 3444 3586 3661 3749 3786 3689 3617 3533
2229 2553 2879 3160 3260 3161 3018 2845 2798 2752 2816 3030 3220 3394 3798 4214 4284 4454 4820 5457 5694 5616 5506 5441 5305 5116 4811 4551 4451 4488 4572 4606 4738 4486 4432 4339 4308 4286 4370 4400 4225 4131 4193 4024 3883 3691 3681 3660 3872 3987 4127 4156 3819 3974 3934 3547 3556 3494 3436 3394 3367 3359 3399 3443 3471 3519 3548 3598 3613 3597 3529 3501 3466 3444 3444 3455 3541 3624 3605 3691 3618 3533 3313 2744 2374
1852 2130 2394 2752 3114 3224 3234 3143 3065 3028 3056 3043 3033 3147 3377 3903 4262 4825 5350 5003 4988 4905 5567 5712 5632 5462 5106 4680 4299 4108 3991 4114 4484 4269 4184 4199 4164 4715 4660 4524 4138 4461 4439 4432 4438 4126 4167 4153 4096 4144 4234 4377 4190 4036 4200 3609 4218 3574 3528 3521 3518 3554 3566 3592 3708 3796 3792 3742 3641 3522 3444 3461 3481 3509 3567 3568 3591 3698 3591 3285 2963 2620 2263 1823 1386
1690 1811 2000 2141 2458 2842 3075 3216 3165 3185 3231 3220 3249 3316 3426 3493 3561 4192 5173 5178 5127 4879 4874 5141 5484 5733 5466 4889 4666 4678 4538 4198 3806 3433 3358 3513 3693 3945 4023 4145 4272 3863 3824 3793 3841 4914 5008 4398 4221 4592 4497 4428 4765 5090 3819 3769 3773 3750 3745 3737 3753 3800 3853 3929 3967 3945 3906 3800 3764 3742 3731 3773 3892 3824 3822 3697 3537 3514 3446 3414 2834 1983 1725 1162 0
1526 1657 1749 1886 2071 2308 2352 2658 2868 3010 3080 3199 3125 3295 3255 3129 3311 3433 4244 4586 4766 4946 4942 5034 5140 5412 5236 5193 4941 4359 4078 4042 3900 3716 3512 3378 3264 3410 3618 3740 3799 3841 3744 3682 3681 3668 3663 3756 4729 4231 3801 3800 3842 3903 3940 3927 3901 3912 3952 3966 4012 4072 4104 4109 4048 3956 3939 3933 4052 4145 4081 4006 3830 3596 3526 3416 3370 3279 3041 2595 1981 1840 1294 66 0
Wind_Speed
8 12 13 13 12 8 6 6 6 5 5 3 2 1 1 4 4 3 6 7 9 10 10 9 9 10 12 12 14 14 14 14 14 14 14 14 14 13 11 12 12 13 12 12 12 12 14 15 15 15 15 15 15 15 15 15 14 14 12 12 12 13 11 11 10 12 10 9 8 7 7 8 8 8 7 7 7 7 7 7 6 6 6 6 6
8 9 12 12 10 11 8 5 5 4 4 4 3 2 2 3 4 5 7 7 9 9 11 11 11 12 12 14 14 15 14 14 15 15 15 14 13 13 12 11 11 12 13 12 12 12 12 14 14 14 14 14 14 14 13 13 13 14 13 12 13 15 13 13 11 13 12 12 11 9 9 9 10 10 9 8 8 8 8 8 7 7 7 6 6
8 9 11 10 12 12 8 4 3 4 5 4 5 4 3 3 5 6 8 9 9 10 12 12 13 13 13 14 13 15 15 15 15 14 14 14 14 13 11 10 11 13 13 13 12 12 12 13 13 13 13 12 12 11 11 12 13 13 13 14 13 13 13 12 12 15 12 11 10 12 9 12 9 11 10 10 10 9 9 9 8 8 8 7 7
7 9 11 10 12 11 8 4 2 5 7 6 5 4 4 5 6 6 8 10 11 10 12 13 12 12 12 14 13 13 13 13 14 14 14 15 15 13 11 10 11 13 14 14 13 12 12 12 13 12 11 11 11 11 11 12 12 13 13 12 13 15 14 12 13 12 13 11 11 11 9 11 nan 9 11 10 11 11 10 10 8 9 8 8 8
5 6 8 10 11 11 9 4 2 4 6 6 5 5 8 4 6 6 9 11 12 11 11 12 12 12 11 12 12 11 12 12 12 13 13 13 14 13 11 10 11 14 14 15 14 13 12 12 12 12 12 11 12 12 13 13 13 13 13 12 13 15 13 12 11 13 13 13 9 10 9 10 nan nan nan 10 10 10 10 10 9 10 10 9 10
3 6 9 10 10 9 8 8 5 3 6 7 7 6 7 7 7 8 11 12 13 11 9 11 10 8 8 9 9 10 11 11 11 11 11 12 14 13 10 10 11 14 15 16 15 13 13 13 13 13 13 12 13 14 14 14 15 15 14 14 14 14 15 14 13 11 12 11 10 9 10 9 nan 7 10 6 8 10 10 10 10 11 10 11 11
0 2 5 9 11 13 12 10 8 1 7 10 10 8 7 8 7 8 11 14 14 11 7 9 8 8 5 6 8 10 12 15 14 13 12 12 12 10 9 9 10 13 15 15 15 14 14 13 13 13 13 13 13 14 15 16 15 15 14 15 15 15 16 17 17 15 13 15 14 13 11 11 11 11 10 10 10 7 10 11 11 11 12 12 12
1 4 6 10 12 13 13 11 6 1 9 11 11 10 8 8 9 9 13 14 14 13 8 7 7 7 7 8 10 11 13 14 12 12 12 12 11 11 10 10 9 11 13 13 14 14 14 13 13 13 13 13 12 13 14 15 14 13 14 14 14 15 17 18 18 17 17 17 16 17 16 13 12 13 12 12 12 13 11 11 13 13 13 13 13
1 1 4 7 7 8 7 6 3 4 8 9 10 12 12 12 12 12 12 13 13 10 9 7 9 9 8 9 11 13 13 14 12 11 10 10 10 9 9 9 8 10 11 11 12 13 13 13 12 12 12 12 12 13 13 13 14 13 12 13 13 14 16 17 17 17 17 17 14 16 16 15 14 13 11 11 12 13 13 12 12 10 13 14 14
5 2 1 3 4 4 4 1 3 2 5 10 13 15 14 13 11 10 10 13 13 10 9 8 8 11 10 10 9 11 11 11 10 9 8 8 8 8 8 8 9 9 9 10 10 11 11 11 11 11 12 12 12 13 12 12 12 13 13 13 13 14 14 16 17 16 16 16 14 13 13 13 13 13 13 12 11 11 14 15 14 14 14 12 11
6 3 2 3 5 4 3 3 3 3 5 8 11 13 12 10 9 9 9 13 12 11 9 8 9 10 11 9 7 7 6 6 7 7 7 7 6 6 7 7 8 8 8 8 9 9 9 9 9 10 11 10 11 12 12 12 12 12 12 12 13 14 13 14 15 16 15 14 13 11 12 13 13 13 14 14 14 14 15 17 16 15 16 17 14
8 7 6 7 9 7 7 7 4 4 3 5 8 11 11 10 9 8 9 10 12 12 11 10 10 10 10 8 5 4 3 5 4 5 6 5 5 6 7 7 8 8 8 8 7 7 6 7 8 9 9 10 10 11 12 12 12 11 11 11 12 13 13 13 14 14 15 13 14 12 12 13 13 14 16 15 16 17 17 18 18 16 16 16 14
11 10 10 10 7 8 11 11 7 4 2 3 5 8 9 9 8 7 7 9 11 12 11 10 10 10 10 7 5 5 4 4 5 6 7 6 6 5 6 7 7 7 7 7 7 6 6 7 8 9 10 10 10 10 10 11 11 11 11 11 11 12 12 12 12 13 13 13 12 12 12 13 13 14 16 17 17 17 17 18 19 16 17 17 14
13 12 12 9 7 6 9 10 9 6 4 3 4 6 9 10 9 6 6 9 12 12 12 11 11 11 9 7 5 6 6 7 8 8 7 7 6 5 5 6 6 5 5 6 7 7 8 9 11 13 14 14 14 13 13 12 11 11 11 11 11 10 10 11 11 12 11 12 11 11 12 12 14 14 15 15 17 17 17 18 17 15 16 17 15
16 15 13 9 6 5 7 10 10 7 5 4 4 6 10 12 11 7 7 9 10 12 13 12 13 11 10 7 7 8 8 8 8 8 8 6 6 5 5 6 5 4 4 6 6 7 10 12 14 15 15 15 15 15 15 14 14 14 15 14 13 11 11 11 10 10 10 11 10 10 11 12 12 12 14 15 15 17 17 16 14 16 17 16 16
17 15 13 9 8 8 8 10 11 10 7 5 4 5 8 10 12 10 9 9 11 13 14 13 14 13 10 8 7 8 9 9 9 9 8 7 7 6 6 6 6 5 5 6 6 8 10 12 13 13 12 12 12 12 12 12 12 14 14 14 15 12 12 12 11 10 10 11 11 11 11 13 11 11 11 12 13 14 15 14 13 14 15 17 15
18 15 14 12 11 11 10 10 11 11 9 6 5 5 6 10 12 12 12 12 11 13 15 16 16 13 11 9 9 9 7 6 7 5 4 6 6 6 6 5 4 5 6 7 7 8 10 11 11 10 9 8 7 8 8 7 7 8 10 10 11 11 10 10 10 9 8 9 9 11 10 11 11 9 9 10 10 10 12 11 11 13 12 14 15
17 15 15 16 14 11 9 9 11 12 11 7 6 8 10 11 11 12 12 9 11 14 15 17 16 13 12 10 10 9 8 7 7 7 7 7 7 8 7 7 4 5 7 8 8 9 10 9 9 7 6 5 5 4 5 5 5 5 6 6 6 6 7 6 6 6 6 6 7 8 7 8 8 7 8 9 8 8 9 9 9 10 9 12 13
21 18 20 20 16 13 11 8 9 10 10 8 8 10 10 10 10 10 8 8 11 16 18 21 18 18 16 13 11 12 11 10 9 9 8 7 6 7 6 6 6 7 8 9 8 10 10 9 8 6 4 2 2 3 4 5 6 4 3 3 3 3 3 4 3 3 3 3 5 6 5 5 4 5 6 6 6 7 8 8 8 7 8 10 11
21 20 19 19 16 13 11 9 8 10 12 11 11 9 7 8 11 11 11 13 14 15 19 19 18 18 17 16 14 14 13 12 11 10 8 7 7 8 7 7 6 7 8 8 9 9 9 8 6 5 3 1 2 4 5 5 5 4 3 2 1 2 2 2 1 1 1 2 4 5 5 4 3 3 4 4 4 6 7 7 7 7 7 8 9
21 20 19 18 16 13 11 11 10 12 14 15 12 9 8 10 9 10 11 10 10 13 17 20 20 18 17 15 14 15 13 12 10 10 9 9 9 9 9 8 9 9 9 9 9 9 8 6 5 3 0 2 4 5 6 5 5 5 4 3 2 2 2 1 0 1 2 2 3 4 4 4 3 3 2 2 3 4 5 6 7 7 8 7 8
20 20 20 19 17 15 14 16 18 17 16 14 11 11 11 8 8 10 12 12 10 13 17 20 20 19 15 15 14 16 15 14 11 11 10 10 10 10 10 10 9 9 10 9 9 9 8 5 4 3 4 5 6 7 6 5 5 5 6 6 5 4 3 1 0 1 2 2 2 3 3 3 3 3 3 3 2 3 4 5 5 6 8 8 7
18 19 21 20 19 19 20 21 20 17 16 16 15 12 10 8 8 10 9 9 9 12 17 21 21 20 17 17 16 16 15 12 10 12 10 10 11 11 11 10 11 11 11 10 10 9 8 6 5 5 6 7 7 6 5 5 5 6 7 7 7 6 5 4 4 3 3 4 4 3 2 2 2 2 2 2 3 4 5 5 6 6 8 9 8
18 19 21 21 21 24 27 26 23 21 20 19 16 13 12 11 9 10 7 9 11 14 17 20 20 19 18 18 17 17 14 12 11 13 11 10 12 12 12 11 12 13 12 12 11 9 9 8 8 7 7 8 7 6 6 6 6 6 7 7 7 7 6 5 4 4 4 5 5 4 2 3 3 1 1 1 2 4 5 6 7 9 9 11 10
21 21 20 23 26 28 29 28 27 25 22 21 18 16 13 11 10 9 10 11 13 15 17 18 18 18 18 18 16 16 15 13 12 14 12 12 12 13 13 12 13 13 12 13 13 11 10 10 10 8 7 7 6 7 7 7 7 7 7 7 8 8 7 6 5 4 5 6 5 4 2 3 3 3 4 4 5 6 6 7 9 10 11 11 10
26 24 24 25 26 26 28 29 29 25 22 23 21 17 14 13 10 11 13 15 15 16 16 18 19 18 19 16 16 16 14 13 13 14 14 14 15 14 15 15 14 13 14 14 13 13 12 11 10 9 8 7 7 8 8 8 7 7 8 7 8 9 8 8 7 6 6 6 5 3 2 3 3 5 6 6 7 9 8 9 11 11 12 10 10
27 28 27 29 29 26 24 25 25 23 22 23 21 18 16 16 14 14 15 16 17 18 18 18 19 18 19 18 17 16 17 16 16 17 18 17 16 16 16 16 16 15 14 14 14 13 14 12 10 9 7 6 7 8 9 9 8 8 9 9 8 9 9 9 8 7 6 6 5 3 2 2 4 6 7 8 8 10 10 12 11 11 10 10 10
31 33 33 31 26 24 22 20 20 22 23 23 21 19 17 17 16 17 18 18 20 20 20 20 20 19 19 17 17 19 19 20 20 21 20 19 18 18 18 19 19 16 15 13 13 14 14 12 10 9 8 8 7 8 9 8 8 9 9 9 10 9 9 8 8 7 6 5 4 2 1 2 4 6 6 7 8 9 9 9 8 6 7 9 11
31 30 31 28 25 22 20 17 17 19 22 23 23 21 22 23 22 22 21 19 21 21 21 21 20 18 18 19 20 21 22 23 23 23 22 20 20 20 20 21 20 18 18 16 15 14 13 11 10 10 9 8 6 6 8 9 9 10 9 9 10 10 10 9 7 6 6 5 3 1 0 2 4 5 6 6 6 5 5 6 6 7 9 10 12
nan 29 27 27 24 22 19 17 18 18 21 24 26 25 23 24 23 22 21 21 23 21 22 21 19 19 21 22 23 23 23 23 23 23 23 22 21 22 22 21 20 19 19 18 16 15 12 11 11 10 9 8 7 7 9 12 11 10 10 10 10 10 10 9 8 6 5 4 1 1 1 3 3 4 5 6 7 8 9 8 7 6 8 10 12
nan 35 30 28 24 22 21 18 16 17 21 23 25 24 23 22 24 24 23 21 21 22 22 19 18 19 23 24 25 24 24 22 21 22 22 21 21 23 22 21 20 20 19 19 17 14 12 11 11 10 8 8 8 8 12 15 14 13 10 9 10 10 11 10 8 6 5 4 3 2 2 0 1 2 4 7 6 8 10 12 14 13 11 11 13
nan nan 33 30 26 27 23 16 12 15 20 23 26 26 25 23 23 24 24 23 21 21 20 19 20 24 26 26 24 24 22 21 22 21 21 21 22 23 22 21 20 19 20 19 16 14 13 12 12 10 8 7 8 9 15 16 15 15 14 10 9 10 10 9 7 5 5 4 3 3 4 5 4 2 2 1 4 9 11 12 15 16 17 19 19
nan nan nan 29 27 26 21 15 16 18 19 21 27 27 25 24 24 25 27 24 21 20 20 21 23 25 27 27 26 25 23 23 21 21 22 23 22 22 21 20 19 20 21 18 16 15 13 13 11 10 8 7 8 12 16 17 16 17 17 14 10 9 9 8 6 5 4 4 4 5 5 6 6 4 2 2 2 3 11 17 17 17 17 20 22
33 nan nan 29 32 29 23 20 21 19 17 24 27 24 25 27 28 30 28 25 23 22 22 24 25 26 27 27 26 24 23 22 23 24 24 23 21 20 20 21 22 21 19 17 15 14 14 13 11 10 10 9 8 12 17 17 17 18 18 17 12 10 8 6 4 4 5 4 4 5 5 6 5 4 3 1 2 4 5 8 11 12 14 18 22
31 nan nan 31 35 33 28 29 28 25 27 30 29 27 30 30 30 30 30 29 25 24 25 26 27 27 27 26 24 23 23 23 24 24 23 22 20 21 20 20 20 19 18 17 15 14 13 12 12 11 11 9 9 12 17 18 18 19 19 18 13 11 8 5 4 5 5 5 5 6 5 4 5 4 5 3 2 3 5 5 6 7 10 12 14
30 21 23 29 32 34 30 28 28 26 26 29 27 26 28 29 30 31 29 28 28 27 27 28 27 26 24 23 22 22 22 23 23 23 22 20 20 20 19 20 19 18 18 17 16 15 13 12 12 11 10 9 9 14 18 18 18 19 21 17 14 11 8 6 5 6 7 7 7 6 6 6 6 5 5 7 6 4 4 4 6 7 8 10 11
29 22 24 32 38 40 34 35 29 25 28 28 26 25 27 30 30 31 30 28 26 25 25 25 23 22 21 21 21 20 21 21 21 20 19 19 19 19 19 20 18 17 17 16 16 15 14 13 12 12 11 11 11 16 19 20 20 21 21 16 15 12 9 7 7 8 8 8 8 8 8 8 6 6 7 10 10 10 7 7 8 9 10 10 10
33 25 28 33 41 42 38 29 28 27 29 29 27 27 29 30 31 32 31 28 25 23 23 23 21 20 20 20 20 20 20 20 19 17 17 18 18 19 19 20 17 15 15 15 16 16 15 14 12 12 13 13 13 17 22 22 22 24 21 17 15 13 10 10 10 10 10 11 9 10 9 8 6 6 8 12 13 15 11 10 10 11 11 10 10
34 29 23 30 38 38 32 28 26 26 28 29 28 28 30 31 31 31 29 27 23 23 22 21 20 20 20 20 19 19 19 18 17 17 17 17 17 18 18 18 15 15 15 16 17 16 15 15 13 12 15 14 14 18 24 23 25 25 22 16 15 13 11 10 12 11 12 12 12 12 12 10 8 7 7 11 14 17 13 12 12 13 10 10 12
35 35 32 31 39 39 31 27 25 26 29 30 29 29 29 31 31 30 27 24 22 22 21 21 20 20 20 20 19 19 19 18 18 18 18 17 17 17 15 15 14 15 16 16 16 16 15 16 16 15 17 16 15 17 24 25 27 26 25 18 15 13 11 11 12 13 14 15 14 14 15 16 12 9 7 8 11 17 16 14 15 13 13 12 14
36 38 39 32 32 31 27 24 28 32 30 29 30 29 29 30 30 27 22 20 21 23 23 22 22 20 20 19 20 19 18 18 18 17 16 15 15 14 14 15 14 15 15 15 15 16 16 16 17 18 17 18 20 20 26 30 28 28 26 21 15 12 12 14 15 16 15 15 16 16 15 18 18 14 12 11 11 15 18 17 16 17 17 16 16
36 40 42 39 37 37 32 32 36 34 31 31 30 29 31 31 26 20 19 21 24 23 23 23 23 21 20 20 19 20 19 19 17 17 15 15 15 13 14 13 13 14 13 14 15 16 17 18 19 18 19 20 22 24 24 33 31 30 27 23 15 12 14 15 15 15 16 17 17 17 18 18 20 20 18 16 15 16 18 21 18 18 18 17 19
41 39 41 43 43 43 41 38 35 32 31 30 28 31 31 28 20 18 22 25 25 23 22 20 19 18 19 19 19 18 19 19 18 16 14 14 15 14 14 14 14 14 14 14 16 17 18 18 20 20 21 22 23 27 25 29 33 31 29 24 17 13 16 16 13 13 15 16 17 17 17 20 25 24 22 21 20 19 21 21 17 18 21 22 24
42 41 41 41 44 47 46 44 38 34 32 31 30 33 30 26 22 27 26 26 26 23 21 18 18 17 18 18 17 16 17 17 17 18 17 16 15 14 14 15 15 15 15 13 13 12 14 15 16 18 19 21 23 23 27 26 31 31 29 25 20 15 15 15 13 12 14 16 16 16 22 30 30 28 26 24 23 25 24 21 21 20 24 30 31
44 43 45 45 45 45 47 47 45 42 39 37 35 34 31 28 33 32 28 26 25 23 21 19 18 17 18 18 17 17 16 17 18 18 18 17 15 15 14 14 15 14 13 13 10 10 10 9 11 14 16 18 20 21 22 26 25 28 26 24 21 18 16 15 14 13 12 16 27 33 34 32 32 31 31 30 28 26 25 24 24 25 30 32 34
47 45 47 48 50 50 50 52 51 48 44 41 38 35 34 35 34 31 29 29 28 25 23 22 22 21 19 19 18 17 18 18 18 19 18 18 17 16 16 16 15 14 14 14 12 13 9 8 8 11 14 17 19 20 20 22 25 23 22 21 21 20 18 18 15 18 31 31 31 31 32 32 31 30 29 28 27 29 29 29 29 31 32 33 35
50 46 48 51 54 55 56 56 53 50 47 44 42 40 38 36 34 33 33 33 32 30 28 27 25 25 24 23 20 21 22 21 20 21 21 21 21 20 20 19 18 17 15 14 14 13 12 12 9 12 15 17 19 19 20 19 22 24 22 22 21 18 18 20 18 15 20 23 26 24 25 26 28 29 28 32 33 37 35 35 35 35 36 38 39
51 49 51 55 58 58 58 57 55 50 47 43 41 39 38 37 36 35 35 37 36 33 31 29 27 28 28 26 25 25 25 25 24 24 24 24 23 23 22 22 21 22 20 19 17 19 17 16 17 17 17 17 16 16 19 19 20 22 22 23 24 23 23 21 19 20 20 20 22 27 28 27 29 30 31 33 32 33 34 36 37 39 40 41 42
56 53 53 57 62 61 59 59 56 51 48 45 43 39 39 40 39 37 36 38 41 44 42 38 35 34 33 33 31 29 27 26 27 33 41 41 36 30 26 24 26 27 26 25 24 24 23 22 22 22 22 21 20 18 18 20 21 23 24 23 23 22 22 22 23 30 31 29 27 26 26 27 28 30 35 38 39 39 40 40 41 41 43 44 44
57 51 53 58 64 64 61 59 57 54 51 49 47 44 43 43 42 39 38 39 42 44 44 41 41 40 39 38 38 35 33 32 33 36 39 42 47 46 45 36 34 42 43 41 36 29 28 27 25 30 32 27 24 26 32 30 27 26 24 24 27 30 29 30 36 37 34 32 31 32 33 34 35 38 40 40 40 41 41 41 43 43 44 45 nan
58 57 56 57 62 65 63 62 59 57 55 53 52 48 45 44 44 43 41 41 39 39 39 40 43 46 45 43 43 44 43 42 40 40 40 40 41 47 54 52 48 46 46 46 44 39 36 34 32 34 38 44 41 41 42 40 39 36 35 36 37 39 41 42 42 40 36 35 36 37 38 39 39 40 41 42 42 43 43 44 45 46 47 nan nan
Wind_Direction
341 343 344 348 347 332 311 261 228 197 159 135 126 84 131 159 169 156 168 168 167 164 158 150 147 152 153 150 149 151 147 143 138 132 126 120 112 107 101 97 92 89 87 89 95 102 106 106 102 99 98 97 97 98 97 100 100 101 99 95 92 91 91 91 92 92 88 90 97 94 96 99 90 89 91 92 92 91 86 85 89 94 91 87 84
339 338 346 348 348 348 334 293 260 231 173 151 123 105 122 135 146 157 172 169 164 164 167 164 163 165 169 161 156 155 153 146 138 132 124 121 111 106 102 99 93 91 91 91 97 101 104 103 100 98 97 96 95 95 96 96 94 93 93 91 88 92 87 86 84 83 84 86 77 81 88 88 97 95 91 88 89 88 89 87 90 94 96 93 88
344 341 344 347 354 353 342 326 269 226 203 164 141 129 117 139 158 162 166 174 169 170 178 174 177 179 175 169 158 158 153 143 134 131 125 118 111 104 101 98 94 94 93 94 101 102 104 104 101 100 96 95 94 95 97 95 92 88 85 89 90 87 88 85 77 91 87 85 92 86 90 92 83 90 90 89 87 87 91 94 96 97 98 98 94
329 330 345 350 356 357 353 346 271 217 204 184 150 115 145 155 165 168 173 174 175 176 182 183 187 189 181 173 167 155 151 141 136 136 129 120 113 109 107 101 93 95 93 94 103 105 103 102 103 101 97 94 95 98 98 95 90 88 86 85 86 88 83 82 80 88 90 71 80 94 93 95 nan 82 88 82 83 86 88 91 88 91 88 85 80
296 323 345 356 1 3 358 335 252 196 197 197 171 149 164 146 163 178 182 176 179 185 193 197 198 195 186 180 174 159 152 144 139 135 129 126 120 116 112 104 97 96 95 93 99 101 103 104 102 100 98 94 96 98 97 93 91 91 92 92 90 96 96 90 85 85 85 102 84 76 76 77 nan nan nan 82 79 78 74 80 81 83 83 72 75
304 337 349 357 358 354 356 352 0 168 185 198 195 171 163 168 173 184 184 181 182 187 199 204 199 190 189 180 169 158 150 150 143 139 139 127 116 119 115 107 100 97 96 94 95 101 101 101 101 102 99 98 97 97 97 96 93 92 92 96 95 94 102 98 91 88 90 89 98 98 101 107 nan 100 93 90 80 80 81 80 79 78 76 73 74
331 346 345 354 358 4 11 8 11 96 183 201 202 189 172 177 184 192 188 186 187 190 197 198 189 174 165 162 163 161 161 159 160 154 145 139 130 125 129 115 102 97 95 94 95 96 98 100 101 102 103 103 102 100 98 94 93 91 95 95 98 99 96 95 92 88 87 83 79 82 82 84 87 86 96 93 89 70 74 77 72 73 78 79 79
248 10 358 2 6 11 15 15 11 129 203 202 202 200 189 185 196 197 192 191 189 189 188 189 177 165 164 163 167 168 167 169 168 157 151 149 138 129 131 121 107 99 98 96 96 96 98 98 99 102 105 108 109 106 102 100 100 99 96 97 97 96 94 94 92 90 87 84 79 77 76 80 85 85 85 94 96 97 85 73 78 81 83 84 85
218 232 2 1 8 21 23 12 3 230 207 200 202 207 203 198 201 199 193 193 189 185 182 175 171 172 175 175 175 180 179 176 178 165 154 152 139 137 131 123 115 102 100 99 98 98 99 101 99 102 106 109 111 110 106 102 98 97 93 93 93 95 95 94 93 90 88 87 83 80 82 81 78 80 78 76 90 97 96 92 90 79 83 84 82
190 140 284 317 332 4 23 338 289 277 216 204 205 208 208 204 202 202 192 190 186 181 177 175 169 180 181 181 185 195 190 183 180 174 166 168 145 135 134 126 117 112 106 104 103 98 100 103 106 103 104 108 112 110 108 105 103 99 95 93 94 95 99 98 95 96 93 94 91 90 83 80 79 77 75 76 80 80 93 101 102 102 101 96 85
214 194 214 271 287 287 287 355 6 302 235 223 217 212 210 207 206 206 199 194 186 178 176 176 178 181 185 190 198 202 199 190 188 176 181 179 154 141 131 125 122 118 115 114 103 98 100 104 109 111 113 115 114 111 108 106 103 102 101 97 97 95 101 100 101 101 99 95 89 84 81 78 79 82 85 87 91 92 94 99 100 99 106 109 101
220 214 216 243 261 293 329 2 3 344 300 261 235 223 215 208 211 212 206 200 190 181 175 175 183 185 191 198 199 198 204 191 185 182 192 181 162 156 147 143 132 129 129 127 115 101 109 109 107 111 114 115 113 113 112 108 108 106 105 104 102 98 101 103 105 104 98 97 90 83 77 79 81 82 87 86 88 94 97 97 99 100 95 91 92
230 232 234 245 271 308 339 346 329 323 325 291 256 236 226 218 227 229 209 207 197 187 179 177 184 192 201 200 188 186 179 186 194 192 204 196 182 166 161 145 152 146 139 127 122 104 110 102 99 101 105 105 106 108 110 107 110 109 106 101 100 97 98 96 101 100 99 101 96 86 81 81 81 83 87 90 92 91 88 89 92 96 95 97 93
224 239 248 254 272 307 330 323 311 282 296 276 256 223 218 213 227 234 214 212 204 194 187 182 184 195 205 199 183 182 179 188 192 192 202 202 196 174 149 144 154 135 130 121 123 108 104 99 95 94 94 93 91 92 95 98 99 104 104 102 98 100 101 94 98 100 101 97 97 93 83 79 82 83 86 87 89 87 86 86 92 90 91 95 91
220 237 255 264 273 302 299 303 297 292 303 286 251 223 214 210 216 226 223 217 209 203 196 186 188 194 199 189 176 181 187 192 191 195 200 206 192 174 169 163 159 146 118 127 122 113 109 107 99 96 92 88 86 84 86 86 88 95 98 98 102 104 99 99 100 96 98 93 87 85 87 84 83 86 90 92 95 94 95 97 95 97 97 95 95
223 235 252 265 265 266 265 276 283 283 297 284 291 248 227 215 214 218 219 215 204 203 198 196 196 196 192 182 166 180 195 194 196 205 204 210 208 194 191 185 173 166 140 135 126 122 118 112 106 99 93 85 80 76 76 80 78 84 89 91 92 99 98 92 98 96 93 90 88 85 85 87 86 90 93 97 96 98 100 101 94 92 97 103 103
226 231 244 259 258 260 267 284 286 289 293 309 295 274 258 229 221 218 213 207 201 199 200 202 202 200 190 178 170 181 194 190 183 188 184 205 208 205 201 188 176 163 143 140 137 134 130 121 116 108 97 88 76 63 60 64 63 73 81 84 86 89 90 90 93 93 93 90 88 80 83 89 93 96 101 102 99 100 102 102 99 97 98 103 109
238 240 249 260 263 272 277 281 300 306 319 311 276 262 247 237 233 228 221 212 200 199 202 205 206 201 194 181 173 180 188 178 178 186 196 204 209 211 210 206 175 154 152 159 156 145 142 136 133 127 115 94 70 49 31 28 32 56 71 81 87 89 88 91 88 88 83 82 84 83 80 88 90 93 99 105 106 102 105 104 100 97 95 97 102
239 240 242 247 248 249 257 273 298 302 288 281 261 254 242 240 233 228 226 218 211 199 199 203 205 200 194 187 183 188 191 190 186 193 202 198 198 213 213 199 184 177 174 175 169 153 155 151 145 138 135 100 37 15 352 358 1 26 46 76 79 85 96 92 89 73 68 62 62 69 65 77 85 89 97 106 115 117 114 113 107 101 93 87 92
243 243 243 248 251 254 261 268 279 287 285 274 273 256 263 257 243 225 216 216 214 205 203 205 205 201 197 196 191 192 198 197 195 201 199 193 199 208 213 203 192 181 175 180 170 158 158 150 148 139 125 69 355 346 343 344 346 353 1 7 330 359 69 87 96 337 338 23 44 56 48 47 46 65 83 94 107 122 127 124 116 107 95 85 82
242 245 245 248 248 249 246 246 250 258 256 254 257 266 257 245 241 236 228 228 226 215 209 207 208 204 204 205 202 201 201 200 196 196 193 193 199 204 208 197 197 186 186 182 173 165 166 167 160 179 342 323 327 329 324 327 336 340 333 338 331 355 33 80 121 49 9 0 29 43 46 44 22 30 48 81 102 123 138 136 129 116 101 85 71
241 247 249 243 241 243 240 236 237 245 255 267 261 256 259 259 246 238 225 222 227 222 213 212 211 209 209 209 207 205 202 199 195 194 194 200 204 208 209 201 191 189 189 177 175 174 180 190 202 244 287 308 312 318 320 313 325 329 328 308 317 336 4 32 305 26 31 317 329 9 37 38 10 25 33 40 64 109 136 140 123 103 93 82 56
240 248 250 248 242 239 239 243 250 258 266 273 263 258 262 267 250 232 224 223 229 225 219 217 216 214 215 214 214 212 211 206 200 197 195 198 203 206 206 194 182 183 186 180 183 185 200 220 236 256 280 293 303 308 304 306 314 324 321 317 313 320 324 313 312 326 321 303 321 343 14 337 298 355 21 29 57 95 129 131 111 99 86 80 61
232 235 242 244 240 236 233 238 241 242 249 259 255 252 250 247 243 229 224 226 227 224 223 222 221 218 220 219 218 217 219 213 204 199 198 200 204 206 204 191 185 184 187 191 194 202 218 237 250 261 274 280 288 291 290 299 315 317 314 315 313 314 310 307 309 307 302 305 322 332 346 317 308 25 63 64 73 93 115 120 104 94 88 84 75
228 229 237 244 244 241 234 236 234 234 244 252 252 249 250 249 242 232 226 232 228 227 226 223 224 224 223 221 221 221 222 219 211 206 203 206 207 206 202 193 190 186 188 200 206 215 229 245 254 266 272 278 282 286 293 303 305 304 308 307 307 307 305 304 304 296 294 308 317 336 329 292 318 50 87 99 106 99 106 105 97 94 90 86 73
218 221 228 239 245 242 236 234 231 233 239 246 247 248 246 241 242 234 232 233 231 227 228 227 226 226 224 227 226 227 228 227 222 214 212 212 211 207 204 201 198 195 198 203 215 225 236 249 259 266 269 270 274 284 296 305 309 299 296 299 298 300 299 296 296 296 301 309 316 332 316 300 354 59 95 111 112 105 106 100 94 92 90 83 69
209 217 223 230 235 242 245 243 244 244 243 246 250 247 240 233 237 236 233 235 232 230 229 230 230 229 226 228 232 233 232 232 230 224 219 217 213 210 206 204 206 204 206 208 216 230 239 249 259 264 266 269 278 292 295 299 300 294 292 296 297 297 295 290 291 299 303 312 323 323 315 329 27 64 91 104 108 108 108 99 94 90 83 76 69
209 214 219 225 228 236 241 244 250 248 245 247 250 248 243 237 239 236 237 236 230 233 234 234 234 230 228 232 233 234 234 234 233 232 228 224 219 215 211 209 211 210 210 214 221 233 241 247 255 261 264 268 282 294 298 297 297 298 294 297 298 298 299 296 292 296 303 311 323 328 346 15 46 71 86 100 101 108 111 103 93 78 68 69 71
200 211 218 219 220 222 229 236 240 250 252 255 252 249 240 233 233 233 234 238 237 238 238 239 237 233 229 231 231 232 233 237 239 239 237 232 226 221 217 215 216 214 214 217 223 232 242 249 254 256 263 272 284 289 284 291 300 307 305 305 304 306 305 299 295 295 294 299 302 276 302 62 70 81 80 89 96 100 107 99 82 76 71 58 57
nan 204 210 214 216 218 220 227 235 246 252 255 252 252 250 249 246 244 240 239 238 240 241 240 238 234 231 232 231 229 232 238 241 242 241 238 232 228 224 221 220 219 218 220 224 232 241 249 254 257 262 267 273 267 282 310 308 304 311 307 303 303 304 301 295 285 279 279 271 198 202 56 71 75 67 61 62 56 48 63 72 53 61 62 57
nan 204 209 212 216 218 215 218 230 241 250 253 253 257 254 253 248 248 245 245 243 243 244 243 238 235 233 232 231 230 233 237 239 239 240 240 237 232 227 223 221 220 220 224 229 235 238 239 248 255 265 267 268 266 297 306 320 325 317 313 308 302 299 301 298 280 259 239 205 203 197 198 14 71 76 59 52 40 41 45 51 50 43 44 54
nan nan 208 211 215 219 218 217 229 239 245 248 248 253 252 250 249 250 249 247 245 247 247 239 235 234 234 234 231 232 234 236 239 240 240 239 237 235 231 227 225 224 224 225 229 233 233 234 238 250 260 262 263 279 297 309 319 327 325 321 311 301 299 300 292 278 246 224 200 211 225 216 210 189 144 105 25 31 35 35 38 36 30 34 36
nan nan nan 218 221 224 220 216 227 234 245 257 257 258 256 252 249 250 247 248 251 250 246 237 235 235 235 233 233 234 237 238 240 240 238 235 235 234 231 228 226 225 225 226 226 229 231 235 240 248 253 254 254 281 300 311 318 322 328 324 313 307 306 301 288 273 248 228 224 233 231 231 227 276 276 118 122 12 5 24 31 27 24 23 28
195 nan nan 222 227 223 216 218 227 235 248 254 258 258 252 247 244 246 250 246 247 247 243 239 234 234 234 234 234 235 237 238 240 240 239 237 234 231 228 225 224 226 228 229 230 230 229 234 241 246 245 246 258 277 301 311 315 319 322 318 314 318 316 306 284 262 249 242 250 260 256 246 246 250 259 314 39 29 16 360 358 356 2 12 16
185 nan nan 225 231 225 216 215 219 222 228 239 244 243 243 243 243 248 247 242 244 244 240 240 236 235 235 234 236 237 238 240 242 243 241 237 232 228 228 226 227 230 233 234 231 229 228 233 242 246 245 250 257 283 295 309 313 316 318 313 307 311 309 294 271 263 260 260 267 279 282 270 265 271 273 297 4 23 359 4 26 27 12 12 8
185 198 213 222 229 228 223 218 218 226 231 240 248 252 251 244 243 247 247 243 241 240 240 239 236 237 238 238 240 240 240 243 245 244 241 236 231 230 232 233 231 231 230 230 230 227 232 239 244 248 250 254 257 288 295 304 311 312 313 300 303 308 308 292 275 270 267 267 279 287 282 279 283 296 308 336 341 351 12 9 8 9 16 16 12
191 205 222 218 217 220 216 213 216 227 234 241 248 253 249 241 242 244 246 245 242 239 241 242 240 241 240 241 241 242 243 244 244 242 236 232 231 232 234 235 236 234 232 231 229 230 232 238 246 251 256 253 255 277 293 300 305 309 300 296 300 302 299 294 281 273 271 277 279 284 288 279 287 295 312 327 337 334 343 2 349 345 344 350 352
200 212 228 223 220 219 216 213 218 226 233 236 246 250 247 241 243 245 248 248 245 243 243 243 243 242 240 240 240 242 243 242 238 236 232 229 230 232 236 239 239 237 231 227 227 227 233 238 245 252 258 258 259 274 293 299 304 307 308 301 299 302 303 289 276 273 271 270 279 301 296 290 287 292 312 323 330 323 328 336 329 326 329 337 333
203 203 223 226 222 219 217 215 224 231 233 236 244 249 244 242 244 247 249 249 246 244 243 244 243 240 237 238 240 241 241 240 235 233 231 233 235 237 238 240 236 232 226 224 226 230 236 241 245 249 259 265 259 269 291 299 305 307 308 297 300 302 300 286 271 265 271 271 272 284 307 304 291 291 310 311 320 314 314 314 311 309 318 326 322
203 203 201 217 220 218 219 223 227 229 234 238 239 240 241 239 241 247 250 249 247 245 244 242 240 239 235 235 236 237 237 236 236 236 234 234 236 236 238 238 232 229 227 226 231 234 239 241 244 248 252 263 264 262 278 297 299 303 311 299 298 302 300 283 268 264 265 271 274 272 284 304 318 324 319 307 303 305 301 298 297 303 308 319 319
202 201 195 207 212 215 217 225 224 228 233 235 232 236 237 236 241 246 250 251 247 243 243 240 237 236 235 236 233 234 239 237 236 238 237 234 234 236 237 237 236 233 232 233 239 240 242 244 247 251 254 262 265 269 273 291 294 300 307 309 295 304 294 277 270 269 271 270 270 272 269 290 308 317 315 310 301 298 297 292 298 301 309 311 297
202 201 197 195 199 203 212 220 224 232 233 232 232 232 234 237 244 251 253 248 244 244 244 241 238 234 233 235 234 232 236 235 234 233 232 230 231 234 237 242 240 241 246 247 248 249 249 250 252 257 259 263 268 278 271 285 294 297 302 315 297 298 294 284 279 274 273 271 272 270 270 280 297 301 304 303 304 302 308 294 301 315 314 308 308
200 202 198 195 199 204 210 219 227 234 233 236 238 233 235 239 243 249 248 244 243 244 244 241 237 231 226 230 232 237 234 228 226 226 228 230 233 238 243 245 250 251 254 257 257 257 256 255 255 257 259 263 265 269 282 277 290 297 301 307 319 305 299 292 288 281 278 275 273 271 271 275 284 293 297 301 304 307 296 299 318 315 314 308 298
196 202 204 201 201 203 210 215 221 226 230 235 237 233 234 238 239 238 241 240 241 242 241 238 232 228 225 225 229 229 226 220 220 220 223 227 230 234 240 243 249 252 250 252 252 255 256 257 258 258 260 261 265 265 277 288 285 298 298 307 315 324 306 295 298 285 276 276 274 271 267 268 275 280 287 292 298 300 298 310 310 309 300 298 303
194 195 201 205 204 208 213 216 215 219 224 229 231 233 234 236 230 232 233 235 236 236 234 230 228 223 220 219 219 217 215 216 219 223 224 226 227 232 234 238 245 247 247 246 247 256 262 264 260 259 259 261 265 270 269 283 295 294 302 305 312 320 324 316 295 285 278 263 260 262 267 269 273 276 280 284 285 296 305 301 299 293 291 295 300
192 195 195 200 207 212 217 218 217 219 224 226 229 232 231 226 226 225 226 226 229 231 229 227 224 220 218 216 218 219 219 221 224 223 224 225 229 233 234 236 244 248 250 252 253 257 262 267 269 265 264 263 266 266 270 272 279 286 289 300 311 315 321 320 312 260 252 260 265 267 268 269 270 271 277 280 284 286 291 289 281 282 289 293 295
192 192 195 196 198 206 214 219 220 216 220 222 224 223 223 221 220 220 221 223 224 225 225 224 222 217 216 217 218 217 220 223 225 224 225 227 231 233 237 241 246 249 250 251 253 258 260 265 270 272 269 267 266 264 265 268 272 273 273 277 280 280 283 271 269 268 267 263 265 268 268 270 267 280 275 274 279 280 283 285 287 288 289 290 291
193 193 196 197 198 203 209 214 219 217 216 219 220 218 215 218 220 221 223 223 224 223 223 224 226 220 217 218 218 223 228 227 228 229 229 231 232 233 237 243 248 251 253 254 255 258 259 261 267 269 272 273 271 266 265 266 268 270 270 270 273 271 273 275 275 275 279 279 275 270 271 276 276 280 282 283 284 284 285 287 288 288 288 289 289
194 194 196 199 199 203 209 216 218 217 216 218 219 219 217 216 217 221 225 226 225 224 220 220 221 223 222 222 221 225 228 230 232 231 226 224 223 227 234 239 242 243 250 254 257 257 258 258 260 262 268 271 271 271 270 272 268 270 271 268 268 270 271 274 277 275 272 273 274 276 279 282 283 285 281 280 280 282 283 283 284 286 287 288 289
198 197 198 199 199 201 207 212 216 217 217 218 219 219 218 218 215 215 222 227 228 230 228 221 218 220 223 224 224 228 233 234 235 235 235 232 231 232 226 229 240 234 235 235 241 253 253 258 258 252 249 257 261 257 255 270 268 274 274 269 260 263 269 269 274 279 274 274 276 277 279 280 280 277 278 280 281 282 284 285 284 285 288 289 nan
203 201 200 200 200 200 204 209 214 216 219 220 220 218 220 221 218 214 216 225 226 230 235 232 224 219 220 223 226 228 231 233 234 236 237 238 237 231 230 231 234 238 239 239 240 239 240 249 259 257 252 247 247 248 254 259 263 266 268 268 268 270 271 274 278 275 273 273 274 275 274 272 273 275 277 278 279 281 282 284 286 287 288 nan nan